Millington, TN

4:09 AM CDT on April 23, 2017 (GMT -0500)
Millington Municipal

Weather History for KNQA - April, 2014

Change the Weather History Date:

Monday, April 14, 2014

  Actual Average Record
Temperature  
Mean Temperature 53 °F -  
Max Temperature 64 °F 71 °F 86 °F (2003)
Min Temperature 42 °F 51 °F 36 °F (1997)
Degree Days  
Heating Degree Days 12    
Growing Degree Days 3 (Base 50)    
Moisture  
Dew Point 52 °F    
Average Humidity 95    
Maximum Humidity 100    
Minimum Humidity 76    
Precipitation  
Precipitation 0.00 in - - ()
Sea Level Pressure  
Sea Level Pressure 29.83 in    
Wind  
Wind Speed 8 mph (NW)    
Max Wind Speed 15 mph    
Max Gust Speed -    
Visibility 8 miles    
Events Rain    
Averages and records for this station are not official NWS values.
T = Trace of Precipitation, MM = Missing Value Source: NWS Daily Summary

Daily Weather History Graph

Daily Weather History Graph

Search for Another Location

Airport or City:

Trip Planner

Search our weather history database for the weather conditions in past years. The results will help you decide how hot, cold, wet, or windy it might be!

Date:

Astronomy

Apr. 14, 2014 Rise Set
Actual Time 6:28 AM CDT 7:31 PM CDT
Civil Twilight 6:02 AM CDT 7:57 PM CDT
Nautical Twilight 5:31 AM CDT 8:28 PM CDT
Astronomical Twilight 4:59 AM CDT 9:01 PM CDT
Moon 7:10 PM CDT (4/14) 5:58 AM CDT (4/14)
Length of Visible Light 13h 55m
Length of Day
13h 03m
Full, 100% of the Moon is Illuminated
Apr 14
Full
Apr 15
Full
Apr 22
Last Quarter
Apr 29
New
May 6
First Quarter

Hourly Weather History & Observations

Time (CDT) Temp. Windchill Dew Point Humidity Pressure Visibility Wind Dir Wind Speed Gust Speed Precip Events Conditions
2:15 AM 60.8 °F - 60.8 °F 100% 29.77 in - WNW 10.4 mph - N/A   Unknown
2:35 AM 60.8 °F - 59.0 °F 94% 29.76 in 6.0 mi NW 5.8 mph - N/A   Overcast
2:55 AM 59.0 °F - 59.0 °F 100% 29.76 in 9.0 mi West 3.5 mph - N/A   Overcast
3:15 AM 59.0 °F - 57.2 °F 94% 29.74 in 6.0 mi Calm Calm - N/A   Overcast
3:35 AM 57.2 °F - 57.2 °F 100% 29.72 in 10.0 mi SE 5.8 mph - N/A   Mostly Cloudy
3:55 AM 57.2 °F - 57.2 °F 100% 29.70 in 10.0 mi SE 4.6 mph - N/A   Overcast
4:15 AM 57.2 °F - 57.2 °F 100% 29.69 in 10.0 mi ESE 6.9 mph - N/A   Overcast
4:35 AM 57.2 °F - 57.2 °F 100% 29.71 in 10.0 mi SSE 5.8 mph - N/A   Scattered Clouds
4:55 AM 59.0 °F - 57.2 °F 94% 29.73 in 10.0 mi Calm Calm - N/A   Clear
8:50 AM - - - N/A% 29.82 in 10.0 mi SSW 4.6 mph - N/A   Overcast
10:50 AM 62.6 °F - 60.8 °F 94% 29.86 in 10.0 mi SSW 4.6 mph - N/A   Overcast
11:50 AM 64.4 °F - 60.8 °F 88% 29.84 in 10.0 mi NW 12.7 mph - N/A   Overcast
12:01 PM 59.0 °F - 55.4 °F 88% 29.84 in 10.0 mi NW 11.5 mph - N/A   Overcast
1:50 PM 55.4 °F - 53.6 °F 94% 29.83 in 10.0 mi WNW 9.2 mph - N/A   Overcast
2:50 PM 53.6 °F - 51.8 °F 94% 29.83 in 3.0 mi WNW 11.5 mph - N/A Rain Light Rain
3:50 PM 50.0 °F - 50.0 °F 100% 29.85 in 5.0 mi WNW 13.8 mph - N/A Rain Light Rain
4:50 PM 48.2 °F - 48.2 °F 100% 29.84 in 4.0 mi NW 13.8 mph - N/A Rain Light Rain
5:50 PM 48.2 °F - 48.2 °F 100% 29.86 in 5.0 mi NW 13.8 mph - N/A   Overcast
6:50 PM 46.4 °F 41.5 °F 46.4 °F 100% 29.91 in 2.5 mi NW 10.4 mph - N/A Rain Light Rain
7:50 PM 46.4 °F 40.1 °F 44.6 °F 93% 29.91 in 5.0 mi NNW 15.0 mph - N/A Rain Light Rain
8:50 PM 44.6 °F 38.8 °F 44.6 °F 100% 29.98 in 7.0 mi NNW 11.5 mph - N/A Rain Light Rain
9:50 PM 42.8 °F 36.2 °F 42.8 °F 100% 30.01 in 5.0 mi North 12.7 mph - N/A Rain Light Rain
10:50 PM 42.8 °F 35.8 °F 37.4 °F 81% 30.02 in 10.0 mi North 13.8 mph - N/A   Overcast
11:50 PM 42.8 °F 37.0 °F 35.6 °F 76% 30.03 in 10.0 mi NNW 10.4 mph - N/A   Mostly Cloudy